| time (UTC) | temp F | wind direction | speed MPH | gust MPH | rain 1hr in | rain 24hr in | rain mn in | humidity % | barometer mb |
| 20260504045052 | 49 | 164 | 3.0 | 5.0 | 0.00 | 0.00 | 0.00 | 100 | 1117.3 |
| 20260504043055 | 48 | 159 | 4.0 | 6.0 | 0.00 | 0.00 | 0.00 | 100 | 1117.3 |
| 20260504041136 | 48 | 156 | 3.0 | 5.0 | 0.00 | 0.00 | 0.00 | 100 | 1117.5 |
| 20260504035240 | 47 | 213 | 1.0 | 2.0 | 0.00 | 0.00 | 0.00 | 100 | 1117.6 |
| 20260504034325 | 47 | 159 | 3.0 | 4.0 | 0.00 | 0.00 | 0.00 | 100 | 1117.6 |
| 20260504032438 | 48 | 252 | 0.0 | 2.0 | 0.00 | 0.00 | 0.00 | 100 | 1117.7 |
| 20260504031525 | 48 | 190 | 1.0 | 2.0 | 0.00 | 0.00 | 0.00 | 100 | 1117.9 |
| 20260504030540 | 49 | 185 | 2.0 | 4.0 | 0.00 | 0.00 | 0.00 | 100 | 1118.0 |
| 20260504025624 | 49 | 157 | 2.0 | 4.0 | 0.00 | 0.00 | 0.00 | 100 | 1118.1 |
| 20260504024642 | 49 | 164 | 3.0 | 5.0 | 0.00 | 0.00 | 0.00 | 100 | 1118.3 |
| 20260504022642 | 49 | 170 | 1.0 | 2.0 | 0.00 | 0.00 | 0.00 | 100 | 1118.3 |
| 20260504021739 | 49 | 166 | 1.0 | 3.0 | 0.00 | 0.00 | 0.00 | 100 | 1118.3 |
| 20260504020741 | 49 | 180 | 1.0 | 2.0 | 0.00 | 0.00 | 0.00 | 100 | 1118.2 |
| 20260504015740 | 49 | 196 | 3.0 | 6.0 | 0.00 | 0.00 | 0.00 | 100 | 1118.4 |
| 20260504014740 | 49 | 226 | 2.0 | 4.0 | 0.00 | 0.00 | 0.00 | 100 | 1118.5 |
| 20260504013742 | 49 | 169 | 3.0 | 6.0 | 0.00 | 0.00 | 0.00 | 100 | 1118.2 |
| 20260504012741 | 49 | 218 | 3.0 | 5.0 | 0.00 | 0.00 | 0.00 | 100 | 1118.4 |
| 20260504011741 | 49 | 219 | 2.0 | 4.0 | 0.00 | 0.00 | 0.00 | 100 | 1118.3 |
| 20260504005840 | 50 | 227 | 5.0 | 7.0 | 0.00 | 0.00 | 0.00 | 100 | 1118.7 |
| 20260504002940 | 51 | 239 | 8.0 | 11.0 | 0.00 | 0.00 | 0.00 | 100 | 1118.5 |
| 20260504000940 | 55 | 252 | 6.0 | 7.0 | 0.00 | 0.00 | 0.00 | 100 | 1118.3 |
| 20260504000039 | 55 | 218 | 8.0 | 16.0 | 0.00 | 0.00 | 0.00 | 100 | 1117.9 |
| 20260503235040 | 55 | 229 | 5.0 | 7.0 | 0.00 | 0.00 | 0.00 | 100 | 1118.0 |
| 20260503234139 | 56 | 224 | 6.0 | 10.0 | 0.00 | 0.00 | 0.00 | 100 | 1118.1 |
| 20260503233138 | 56 | 224 | 5.0 | 8.0 | 0.00 | 0.00 | 0.00 | 100 | 1118.1 |
| 20260503231142 | 56 | 215 | 8.0 | 13.0 | 0.00 | 0.00 | 0.00 | 100 | 1118.2 |
| 20260503230141 | 56 | 231 | 8.0 | 19.0 | 0.00 | 0.00 | 0.00 | 100 | 1118.4 |
| 20260503223140 | 57 | 236 | 11.0 | 20.0 | 0.00 | 0.00 | 0.00 | 100 | 1118.5 |
| 20260503222239 | 57 | 235 | 7.0 | 11.0 | 0.00 | 0.00 | 0.00 | 100 | 1118.6 |
| 20260503220239 | 57 | 226 | 12.0 | 19.0 | 0.00 | 0.00 | 0.00 | 100 | 1118.7 |
| 20260503215238 | 57 | 214 | 8.0 | 14.0 | 0.00 | 0.00 | 0.00 | 100 | 1118.7 |
| 20260503214240 | 57 | 230 | 6.0 | 8.0 | 0.00 | 0.00 | 0.00 | 100 | 1118.7 |
| 20260503213240 | 57 | 221 | 13.0 | 17.0 | 0.00 | 0.00 | 0.00 | 100 | 1118.9 |
| 20260503211340 | 58 | 236 | 7.0 | 9.0 | 0.00 | 0.00 | 0.00 | 100 | 1118.7 |
| 20260503210337 | 58 | 228 | 7.0 | 12.0 | 0.00 | 0.00 | 0.00 | 100 | 1118.9 |
| 20260503205340 | 58 | 213 | 7.0 | 11.0 | 0.00 | 0.00 | 0.00 | 100 | 1118.9 |
| 20260503204438 | 58 | 219 | 9.0 | 16.0 | 0.00 | 0.00 | 0.00 | 100 | 1119.0 |
| 20260503203440 | 58 | 246 | 8.0 | 11.0 | 0.00 | 0.00 | 0.00 | 100 | 1119.1 |
| 20260503202440 | 58 | 229 | 9.0 | 12.0 | 0.00 | 0.00 | 0.00 | 100 | 1119.2 |
| 20260503201440 | 58 | 220 | 8.0 | 10.0 | 0.00 | 0.00 | 0.00 | 100 | 1119.3 |
| 20260503200538 | 58 | 214 | 9.0 | 16.0 | 0.00 | 0.00 | 0.00 | 100 | 1119.5 |
| 20260503195539 | 58 | 231 | 6.0 | 9.0 | 0.00 | 0.00 | 0.00 | 100 | 1119.4 |
| 20260503194539 | 59 | 239 | 8.0 | 13.0 | 0.00 | 0.00 | 0.00 | 100 | 1119.7 |
| 20260503193623 | 59 | 221 | 7.0 | 11.0 | 0.00 | 0.00 | 0.00 | 100 | 1119.8 |
| 20260503192639 | 57 | 251 | 5.0 | 7.0 | 0.00 | 0.00 | 0.00 | 100 | 1120.0 |
| 20260503191638 | 57 | 222 | 9.0 | 14.0 | 0.00 | 0.00 | 0.00 | 100 | 1120.2 |
| 20260503190638 | 58 | 223 | 9.0 | 14.0 | 0.00 | 0.00 | 0.00 | 100 | 1120.2 |
| 20260503185640 | 57 | 231 | 7.0 | 10.0 | 0.00 | 0.00 | 0.00 | 100 | 1120.6 |
| 20260503183740 | 58 | 244 | 5.0 | 9.0 | 0.00 | 0.00 | 0.00 | 100 | 1120.8 |
| 20260503181839 | 57 | 223 | 8.0 | 14.0 | 0.00 | 0.00 | 0.00 | 100 | 1120.8 |
| 20260503180839 | 57 | 223 | 8.0 | 14.0 | 0.00 | 0.00 | 0.00 | 100 | 1121.2 |
| 20260503175839 | 57 | 264 | 6.0 | 11.0 | 0.00 | 0.00 | 0.00 | 100 | 1121.1 |
| 20260503173841 | 57 | 247 | 6.0 | 9.0 | 0.00 | 0.00 | 0.00 | 100 | 1121.2 |
| 20260503172840 | 57 | 239 | 9.0 | 13.0 | 0.00 | 0.00 | 0.00 | 100 | 1121.5 |
| 20260503171939 | 56 | 208 | 9.0 | 15.0 | 0.00 | 0.00 | 0.00 | 100 | 1121.5 |
| 20260503171039 | 56 | 227 | 7.0 | 12.0 | 0.00 | 0.00 | 0.00 | 100 | 1121.8 |
| 20260503150438 | 51 | 222 | 8.0 | 12.0 | 0.00 | 0.00 | 0.00 | 100 | 1122.8 |
| 20260503130938 | 46 | 215 | 5.0 | 7.0 | 0.00 | 0.00 | 0.00 | 100 | 1123.2 |
| 20260503100240 | 34 | 202 | 1.0 | 3.0 | 0.00 | 0.00 | 0.00 | 100 | 1121.1 |
| 20260503080639 | 36 | 232 | 2.0 | 2.0 | 0.00 | 0.00 | 0.00 | 100 | 1121.4 |
| 20260503072639 | 36 | 231 | 3.0 | 4.0 | 0.00 | 0.00 | 0.00 | 100 | 1121.2 |
| 20260503071636 | 36 | 247 | 3.0 | 4.0 | 0.00 | 0.00 | 0.00 | 100 | 1121.5 |
| 20260503070638 | 36 | 225 | 2.0 | 3.0 | 0.00 | 0.00 | 0.00 | 100 | 1121.3 |
| 20260503070538 | 36 | 225 | 2.0 | 3.0 | 0.00 | 0.00 | 0.00 | 100 | 1121.3 |
| 20260503054638 | 36 | 225 | 1.0 | 3.0 | 0.00 | 0.00 | 0.00 | 100 | 1121.7 |
| 20260503053737 | 36 | 225 | 1.0 | 2.0 | 0.00 | 0.00 | 0.00 | 100 | 1121.9 |
| 20260503051839 | 36 | 202 | 0.0 | 1.0 | 0.00 | 0.00 | 0.00 | 100 | 1121.8 |
| 20260503050937 | 36 | 202 | 0.0 | 1.0 | 0.00 | 0.00 | 0.00 | 100 | 1121.8 |